Flag for Germany Weather past 2 weeks in Jena, Thuringia, Germany

Now
64 °F

Clear.


Feels Like: 64 °F
Forecast: 60 / 86 °F
Wind: 1 mph from North

Location: Erfurt-Bindersleben

Current Time: Jul 1, 2015 at 3:03:38 AM

Latest Report: Jul 1, 2015 at 2:20 AM


Visibility: 10 mi

Pressure: 30.18 "Hg

Humidity: 52%

Dew point: 46 °F

Location of JenaLocation

Historic Weather in Jena — Graph

°F

Jena temperature yesterday

Maximum temperature yesterday: 77 °F (at 3:50 PM)
Minimum temperature yesterday: 55 °F (at 5:50 AM)
Average temperature yesterday: 68 °F

Past Weeks' High & Low Weather Summary

 TemperatureHumidityPressure
High79 °F (Jun 29, 4:50 PM)100% (Jun 18, 6:50 AM)30.27 "Hg (Jun 18, 6:50 AM)
Low43 °F (Jun 17, 5:20 AM)34% (Jun 17, 2:50 PM)29.65 "Hg (Jun 23, 12:50 AM)
Average58 °F71%30.07 "Hg
* Reported Jun 16 1:20 AM — Jul 1 1:50 AM, Jena, Weather by CustomWeather, © 2015

Note: Actual official high and low records may vary slightly from our data, if they occured in-between our weather recording intervals... More about our weather records

Advertising

Jena weather history for previous 24 hours

 ConditionsComfort  
Time TempWeatherWind HumidityBarometerVisibility
1:50 AM
Wed, Jul 1
64 °FClear.6 mph56%30.18 "Hg10 mi
1:20 AM66 °FClear.7 mph49%30.18 "Hg10 mi
12:50 AM66 °FClear.7 mph52%30.18 "Hg10 mi
12:20 AM66 °FClear.7 mph56%30.18 "Hg10 mi
11:50 PM
Tue, Jun 30
66 °FClear.8 mph56%30.18 "Hg10 mi
11:20 PM68 °FClear.7 mph56%30.18 "Hg10 mi
10:50 PM68 °FClear.8 mph56%30.18 "Hg10 mi
10:20 PM68 °FSunny.7 mph56%30.18 "Hg10 mi
9:50 PM70 °FSunny.7 mph53%30.18 "Hg10 mi
9:20 PM72 °FSunny.6 mph50%30.15 "Hg10 mi
8:50 PM73 °FSunny.6 mph47%30.15 "Hg10 mi
8:20 PM75 °FSunny.6 mph44%30.15 "Hg10 mi
7:50 PM75 °FSunny.7 mph44%30.15 "Hg10 mi
6:50 PM77 °FPassing clouds.6 mph39%30.15 "HgN/A
6:20 PM77 °FSunny.6 mph39%30.15 "Hg10 mi
5:50 PM77 °FSunny.3 mph36%30.15 "Hg10 mi
4:50 PM77 °FSunny.7 mph36%30.18 "Hg10 mi
4:20 PM77 °FSunny.3 mph36%30.18 "Hg10 mi
3:50 PM77 °FSunny.6 mph36%30.18 "Hg10 mi
2:50 PM75 °FSunny.6 mph41%30.18 "Hg10 mi
2:20 PM75 °FSunny.3 mph41%30.18 "Hg10 mi
1:50 PM75 °FSunny.2 mph39%30.18 "Hg10 mi
1:20 PM75 °FSunny.5 mph44%30.21 "Hg10 mi
12:50 PM73 °FScattered clouds.2 mph47%30.21 "HgN/A
12:20 PM73 °FScattered clouds.8 mph47%30.21 "HgN/A
11:50 AM72 °FScattered clouds.7 mph50%30.21 "HgN/A
11:20 AM72 °FScattered clouds.5 mph53%30.21 "HgN/A
10:50 AM72 °FScattered clouds.5 mph57%30.21 "HgN/A
10:20 AM70 °FSunny.5 mph57%30.21 "Hg10 mi
9:50 AM68 °FSunny.3 mph60%30.21 "Hg10 mi
9:20 AM66 °FSunny.3 mph68%30.21 "Hg10 mi
8:50 AM66 °FSunny.3 mph64%30.21 "Hg10 mi
8:20 AM64 °FSunny.3 mph73%30.21 "Hg10 mi
7:50 AM63 °FSunny.2 mph77%30.21 "Hg10 mi
7:20 AM59 °FSunny.3 mph82%30.18 "Hg10 mi
6:50 AM57 °FSunny.3 mph88%30.18 "Hg10 mi
6:20 AM55 °FSunny.5 mph88%30.18 "Hg10 mi
5:50 AM55 °FClear.3 mph88%30.18 "Hg10 mi
5:20 AM57 °FClear.3 mph82%30.18 "Hg10 mi
4:50 AM57 °FPassing clouds.5 mph82%30.18 "HgN/A
4:20 AM57 °FPassing clouds.6 mph88%30.18 "HgN/A
3:50 AM57 °FClear.6 mph88%30.18 "Hg10 mi
3:20 AM59 °FClear.3 mph82%30.18 "Hg10 mi
Weather by CustomWeather, © 2015

See weather overviewHow to use our weather pages